Showing default

FLOCK 4G 34, 62650

Orbit data source: Space-Track

FLOCK 4G 34, 62650 is a payload satellite owned by Planet (US) in SSO that was launched on Tue, 14 Jan 2025 UTC via an FALCON 9 launch vehicle from the Air Force Western Test Range (AFWTR). Payload-class satellites include a variety of spacecraft equipped with specific instruments for various scientific and technological missions. These include communications satellites like Starlink; space stations such as the ISS; scientific satellites like the Hubble; Earth observation satellites from companies like Planet Labs, Umbra, and HawkEye 360; GPS; miniature CubeSats for education and research; and military/defense satellites.

Loading next visibility...
Identifier
62650, 2025-009AT
Orbit
SSO
Country
Flag of USUS
Related business
Manufacturer
Planet
Mission
Partially operational Commercial Imaging
Bus & Motor
CUBESAT 3U, Unknown motor
Mass
5.7 kg wet, 5.7 kg dry
Launch date (UTC)
2025-01-14 (1 year ago)
Launch vehicle
FALCON 9
Launch site
Air Force Western Test Range (AFWTR)
Object type
Payload
Rocket body
Debris
Shape & HBR
Box + 2 Pan, 1.0 m
Radar Cross Section
0.072 m², Medium (>0.1 m² and < 1m²)

Expand to show TLE details & history
Last TLE update: 9 hours ago

TLE from 9 hours ago
0 FLOCK 4G 34
1 62650U 25009AT  26171.46270302  .00008478  00000-0  30069-3 0  9994
2 62650  97.3962 253.0399 0000338 336.4408  23.6817 15.29322361 79412
Epoch: 2026-06-20T11:06Z
TLE epoch observation values (Epoch: 2026-06-20T11:06:17.540Z)
Latitude
-0.00002°
Longitude
177.78985°
Altitude
480.728 km
Speed
7.625 km/s
True Right ascension
16h 52m 09s
True Declination
0° 00' 00"
Sunlit
Object was in full shadow at epoch
Visualization orbit readout
Latitude
Unknown
Longitude
Unknown
Altitude
Unknown
Speed
Unknown
Apparent Right ascension
Unknown
Apparent Declination
Unknown
Sunlit
N/A
Visualization observer readout
Local Sidereal Time
07:22:52
Azimuth
Unknown
Elevation
Unknown
Doppler factor
Unknown
Orbital elements
Apogee altitude
475.021 km
Perigee altitude
474.558 km
Semi-major axis
6,852.927 km
Eccentricity
0.00003
Inclination
97.3962°
RAAN
253.0399°
Arg. of periapsis
336.4408°
True anomaly
23.68326°
Mean anomaly
23.6817°
Eccentric anomaly
23.68248°
Mean motion
3.82586 °/min
Orbital period
94.1 mins
BSTAR
0.00030069
Loading maneuver chart data...
Computing Atmospheric mass density...
Loading historical data...
Loading historical data...
Loading historical data...
Loading historical data...
Loading historical data...
Loading historical data...
Loading historical data...

Documentation

Showing up to 5 results
|